Location: Bothell
(47.7630°N, 122.2040°W)
Time: 23:57:56
(UTC-08:00)

Amateur Radio Satellites - All Passes

Search period start: 17 January 2017 23:27
Search period end: 18 January 2017 23:27
Location: Bothell, 47.7630°N, 122.2040°W

Satellite Date Start Highest point End Downlink Frequencies (MHz)
Time Altitude Azimuth
QB50P1 17 Jan 23:30:12 23:34:09 37° 97° (E) 23:38:05 145.935-145.965
ANTELSAT 17 Jan 23:31:56 23:35:35 27° 295° (WNW) 23:39:19 437.575/2403.000
POLYITAN 1 17 Jan 23:33:23 23:37:23 41° 98° (E) 23:41:23 437.675
QB50P2 17 Jan 23:34:29 23:38:33 45° 99° (E) 23:42:36 145.880/145.840
AO-85 17 Jan 23:40:28 23:44:09 39° 240° (WSW) 23:47:47 145.980
VELOX 1 17 Jan 23:40:53 23:45:16 59° 259° (WSW) 23:49:41 145.980
50 SAT 17 Jan 23:47:49 23:51:20 55° 259° (W) 23:54:53 437.505
POPSAT HIP 1 17 Jan 23:56:41 00:00:54 70° 102° (ESE) 00:05:06 437.405
Cosmos 2504 17 Jan 23:57:27 00:00:07 12° 48° (NE) 00:02:43 435.465 / 435.565
BEESAT 2 17 Jan 23:59:54 00:01:54 13° 27° (NNE) 00:03:52 435.950
DUCHIFAT 1 18 Jan 00:11:10 00:15:23 87° 104° (ESE) 00:19:35 145.980
AIST 1 18 Jan 00:11:32 00:14:35 19° 67° (ENE) 00:17:36
NANOSAT C BR1 18 Jan 00:15:11 00:19:25 79° 284° (WNW) 00:23:36 145.865
PCSat 18 Jan 00:21:34 00:25:13 19° 106° (ESE) 00:28:53 145.827
DX 1 18 Jan 00:22:49 00:26:59 42° 261° (W) 00:31:10 434.975-435.025
ISS 18 Jan 00:26:15 00:29:31 80° 149° (SSE) 00:32:46 145.825
UKube-1 18 Jan 00:27:33 00:31:46 50° 260° (W) 00:36:01 .
SPROUT 18 Jan 00:32:13 00:35:43 24° 266° (W) 00:39:13 437.525
TISAT 1 18 Jan 00:33:39 00:37:45 61° 73° (ENE) 00:41:53 437.305
CUBEBUG 1 18 Jan 00:38:15 00:39:51 12° 273° (W) 00:41:28 437.445
YUBILEINY 18 Jan 00:42:47 00:51:11 45° 70° (ENE) 00:59:28 435.215
AISAT 18 Jan 00:46:12 00:48:35 14° 271° (W) 00:51:00 437.250
ITUPSAT 1 18 Jan 00:53:04 00:56:53 25° 62° (ENE) 01:00:45 437.325
JAS-2 18 Jan 00:56:40 01:02:29 31° 300° (WNW) 01:08:47 435.910
BUGSAT 1 18 Jan 00:57:30 01:01:33 80° 285° (WNW) 01:05:34 437.445
BEESAT 3 18 Jan 00:58:02 01:01:57 49° 47° (NE) 01:05:49 437.485
Gurwin Techsat 1B 18 Jan 00:58:57 01:02:26 17° 89° (E) 01:05:55 435.225
QB50P1 18 Jan 01:06:22 01:09:45 24° 295° (WNW) 01:13:07 145.935-145.965
Oscar 19 18 Jan 01:06:40 01:11:24 35° 96° (E) 01:16:05 437.125/150
RS-15 18 Jan 01:08:24 01:20:26 83° 309° (NW) 01:32:55 29.354- 29.394
POLYITAN 1 18 Jan 01:09:40 01:12:57 22° 296° (WNW) 01:16:15 437.675
QB50P2 18 Jan 01:10:55 01:14:04 21° 297° (WNW) 01:17:14 145.880/145.840
BEESAT 18 Jan 01:28:41 01:33:15 50° 69° (ENE) 01:37:53 436.000
SWISSCUBE 18 Jan 01:29:55 01:34:35 57° 71° (ENE) 01:39:16 437.505
M-CUBED/EXP-1 PRIME 18 Jan 01:30:38 01:33:07 15° 55° (NE) 01:35:29 437.505
POPSAT HIP 1 18 Jan 01:33:52 01:36:09 14° 300° (WNW) 01:38:27 437.405
Cosmos 2491 18 Jan 01:35:15 01:43:03 39° 85° (E) 01:50:53 435.465 / 435.565
BEESAT 2 18 Jan 01:36:34 01:40:34 53° 48° (NE) 01:44:32 435.950
Cosmos 2504 18 Jan 01:48:16 01:55:41 55° 74° (ENE) 02:02:43 435.465 / 435.565
AIST 1 18 Jan 01:48:21 01:52:28 47° 266° (W) 01:56:33
DUCHIFAT 1 18 Jan 01:48:49 01:50:26 12° 302° (WNW) 01:52:03 145.980
MOZHAYETS 4 18 Jan 01:49:45 01:53:30 26° 64° (ENE) 01:57:17
NANOSAT C BR1 18 Jan 01:53:47 01:54:23 10° 304° (WNW) 01:55:00 145.865
PCSat 18 Jan 02:02:33 02:07:59 78° 305° (NW) 02:13:27 145.827
ISS 18 Jan 02:03:04 02:06:11 41° 354° (N) 02:09:18 145.825
AUBIESAT-1 18 Jan 02:08:28 02:12:01 26° 61° (ENE) 02:15:23 437.475
TISAT 1 18 Jan 02:11:29 02:13:48 14° 270° (W) 02:16:06 437.305
ITUPSAT 1 18 Jan 02:29:54 02:34:28 46° 261° (W) 02:39:06 437.325
CUBESAT XI-V 18 Jan 02:30:05 02:32:07 13° 56° (NE) 02:34:10 437.345
BEESAT 3 18 Jan 02:36:15 02:39:17 21° 246° (WSW) 02:42:18 437.485
Gurwin Techsat 1B 18 Jan 02:37:38 02:42:58 73° 288° (WNW) 02:48:15 435.225
YUBILEINY 18 Jan 02:39:45 02:48:06 49° 272° (W) 02:56:22 435.215
CUSAT 1 18 Jan 02:41:38 02:45:52 26° 83° (E) 02:51:03 437.405
Oscar 19 18 Jan 02:46:02 02:50:44 36° 295° (WNW) 02:55:24 437.125/150
KKS-1 18 Jan 02:49:07 02:53:07 34° 67° (ENE) 02:57:08 437.445
AO-7 18 Jan 02:59:34 03:06:59 34° 95° (E) 03:14:20 29.400- 29.500
M-CUBED/EXP-1 PRIME 18 Jan 03:02:43 03:07:09 76° 251° (WSW) 03:11:17 437.505
BEESAT 18 Jan 03:07:41 03:11:19 22° 268° (W) 03:14:59 436.000
SWISSCUBE 18 Jan 03:09:22 03:12:44 19° 269° (W) 03:16:08 437.505
AIST 2 18 Jan 03:10:09 03:13:21 20° 34° (NE) 03:16:31 435.215
BEESAT 2 18 Jan 03:15:05 03:18:01 19° 246° (WSW) 03:20:55 435.950
ITAMSAT 1 18 Jan 03:22:24 03:27:36 65° 103° (ESE) 03:32:46 435.822/435.867
RS-15 18 Jan 03:23:37 03:34:57 41° 339° (NNW) 03:46:31 29.354- 29.394
MOZHAYETS 4 18 Jan 03:26:09 03:30:29 41° 263° (W) 03:34:51
Cosmos 2491 18 Jan 03:31:10 03:39:38 54° 287° (WNW) 03:48:11 435.465 / 435.565
ISS 18 Jan 03:39:50 03:43:02 51° 14° (NNE) 03:46:13 145.825
Cosmos 2504 18 Jan 03:42:14 03:48:39 32° 276° (W) 03:54:50 435.465 / 435.565
AUBIESAT-1 18 Jan 03:42:19 03:46:18 36° 256° (WSW) 03:50:05 437.475
PCSat 18 Jan 03:48:17 03:52:17 20° 327° (NNW) 03:56:17 145.827
STARS 18 Jan 03:49:30 03:53:49 63° 72° (ENE) 03:58:10 437.465
CUBESAT XI-V 18 Jan 04:04:02 04:08:44 83° 77° (ENE) 04:13:29 437.345
Gurwin Techsat 1B 18 Jan 04:19:32 04:22:01 13° 307° (NW) 04:24:31 435.225
CUSAT 1 18 Jan 04:22:14 04:27:13 52° 289° (WNW) 04:33:43 437.405
PHONESAT 2.4 18 Jan 04:24:05 04:25:11 13° 171° (S) 04:26:18 2401.200-2431.200
KKS-1 18 Jan 04:25:50 04:29:42 29° 264° (W) 04:33:35 437.445
DANDE 18 Jan 04:46:56 04:50:41 88° 101° (E) 04:55:49 436.750
AIST 2 18 Jan 04:48:04 04:52:20 81° 234° (SW) 04:56:35 435.215
STRAND 1 18 Jan 04:48:11 04:50:25 13° 53° (NE) 04:52:39 437.568
AO-7 18 Jan 04:52:00 05:00:16 65° 296° (WNW) 05:08:29 29.400- 29.500
Cubesat XI-IV 18 Jan 04:59:14 04:59:42 10° 84° (E) 05:00:09 437.490
ITAMSAT 1 18 Jan 05:02:45 05:06:37 21° 301° (WNW) 05:10:28 435.822/435.867
BRITE-PL 18 Jan 05:14:15 05:19:23 75° 101° (ESE) 05:24:03 437.365/2234.400
NOAA 15 18 Jan 05:15:24 05:18:36 16° 88° (E) 05:21:49 137.62
ISS 18 Jan 05:16:23 05:19:29 43° 213° (SSW) 05:22:36 145.825
HORYU 2 18 Jan 05:22:38 05:26:50 40° 98° (E) 05:31:03 437.375
STARS 18 Jan 05:28:02 05:30:36 15° 270° (W) 05:33:10 437.465
GONETS M04 18 Jan 05:29:40 05:36:37 25° 59° (ENE) 05:43:33
GOMX 1 18 Jan 05:31:54 05:36:18 44° 98° (E) 05:40:24 467.674
Cosmos 2491 18 Jan 05:34:58 05:38:59 14° 313° (NW) 05:43:01 435.465 / 435.565
RS-15 18 Jan 05:40:19 05:51:34 37° 13° (NNE) 06:02:42 29.354- 29.394
CUBESAT XI-V 18 Jan 05:44:37 05:46:44 13° 273° (W) 05:48:52 437.345
O/OREOS (USA 219) 18 Jan 05:53:10 05:55:46 15° 99° (E) 05:58:21 437.305
CUTE-I 18 Jan 05:53:21 05:58:07 32° 95° (E) 06:02:52 437.470
LilacSat-2 18 Jan 05:54:35 05:58:07 33° 97° (E) 06:01:39 437.200
PHONESAT 2.4 18 Jan 05:57:37 05:58:49 13° 187° (S) 06:00:00 2401.200-2431.200
Cosmos 2499 18 Jan 06:08:41 06:15:28 40° 70° (ENE) 06:22:01 435.465 / 435.565
CUSAT 1 18 Jan 06:09:22 06:11:14 11° 315° (NW) 06:13:14 437.405
NOAA 18 18 Jan 06:19:06 06:23:52 30° 95° (E) 06:28:35 137.9125
STRAND 1 18 Jan 06:23:40 06:28:44 74° 73° (ENE) 06:33:51 437.568
DOVE 4 18 Jan 06:24:08 06:28:22 59° 101° (E) 06:32:27 437.250
AIST 2 18 Jan 06:29:23 06:30:05 10° 252° (WSW) 06:30:46 435.215
DANDE 18 Jan 06:32:55 06:34:44 12° 309° (NW) 06:36:44 436.750
CINEMA 3 18 Jan 06:34:52 06:37:51 19° 92° (E) 06:40:52 145.822/145.860
Cubesat XI-IV 18 Jan 06:35:23 06:40:44 71° 103° (ESE) 06:46:03 437.490
AO-7 18 Jan 06:46:01 06:51:32 20° 319° (NW) 06:57:03 29.400- 29.500
NOAA 15 18 Jan 06:53:40 06:59:01 80° 288° (WNW) 07:04:20 137.62
BRITE-PL 18 Jan 06:53:54 06:57:10 17° 303° (WNW) 07:00:19 437.365/2234.400
HORYU 2 18 Jan 06:59:35 07:03:12 25° 296° (WNW) 07:06:49 437.375
CUTE 1.7 + AOD 2 18 Jan 07:02:06 07:05:27 22° 92° (E) 07:08:46 437.475
GOMX 1 18 Jan 07:10:33 07:14:06 22° 298° (WNW) 07:17:30 467.674
HO-68 18 Jan 07:12:04 07:18:34 35° 95° (E) 07:25:00 435.675
PRISM 18 Jan 07:16:07 07:18:40 16° 60° (ENE) 07:21:12 437.425
PCSat 18 Jan 07:21:33 07:24:00 13° 20° (NNE) 07:26:26 145.827
GONETS M04 18 Jan 07:25:50 07:34:42 88° 265° (W) 07:43:34
LilacSat-2 18 Jan 07:29:12 07:32:16 23° 294° (WNW) 07:35:20 437.200
O/OREOS (USA 219) 18 Jan 07:30:11 07:34:38 66° 298° (WNW) 07:39:06 437.305
CANX-2 18 Jan 07:30:13 07:34:24 47° 99° (E) 07:38:33 2200.000
CUTE-I 18 Jan 07:33:17 07:38:15 41° 294° (WNW) 07:43:12 437.470
CUBEBUG 2 18 Jan 07:46:05 07:49:45 27° 95° (E) 07:53:27 437.445
SEEDS 18 Jan 07:46:42 07:50:46 41° 98° (E) 07:54:47 437.485
Oscar 11 18 Jan 07:51:43 07:52:28 10° 86° (E) 07:53:12 145.826/435.025
RS-15 18 Jan 07:54:27 08:06:52 67° 44° (NE) 08:18:53 29.354- 29.394
COMPASS 1 18 Jan 07:57:02 08:00:56 35° 96° (E) 08:04:49 437.405
NOAA 18 18 Jan 07:59:30 08:04:42 45° 294° (WNW) 08:09:51 137.9125
Cosmos 2499 18 Jan 08:01:56 08:08:37 42° 272° (W) 08:15:08 435.465 / 435.565
DOVE 4 18 Jan 08:02:59 08:05:37 16° 300° (WNW) 08:08:11 437.250
STRAND 1 18 Jan 08:05:22 08:08:29 16° 271° (W) 08:11:38 437.568
AAUSAT CUBESAT 2 18 Jan 08:10:53 08:14:50 38° 97° (E) 08:18:45 437.432
CINEMA 3 18 Jan 08:11:16 08:15:14 44° 289° (WNW) 08:19:16 145.822/145.860
SO-50 18 Jan 08:14:06 08:18:20 34° 118° (ESE) 08:22:33 436.795
Cubesat XI-IV 18 Jan 08:16:27 08:20:17 21° 302° (WNW) 08:24:07 437.490
UWE-3 18 Jan 08:19:33 08:23:36 38° 98° (E) 08:27:43 435.000/436.395/437.385
FUNcube-1 18 Jan 08:22:39 08:26:12 24° 93° (E) 08:29:47 145.935
UNISAT 6 18 Jan 08:28:53 08:32:25 26° 65° (ENE) 08:35:57 437.425
NOAA 15 18 Jan 08:35:08 08:37:59 15° 306° (NW) 08:40:48 137.62
CUTE 1.7 + AOD 2 18 Jan 08:37:23 08:41:27 41° 290° (WNW) 08:45:30 437.475
TIGRISAT 18 Jan 08:42:42 08:46:29 32° 67° (ENE) 08:50:17 435.000
ZACube-1 18 Jan 08:43:54 08:48:02 41° 98° (E) 08:52:13 437.345
PRISM 18 Jan 08:49:22 08:53:29 62° 258° (WSW) 08:57:39 437.425
ANTELSAT 18 Jan 08:56:57 09:01:01 47° 71° (ENE) 09:05:07 437.575/2403.000
HO-68 18 Jan 08:59:36 09:06:34 54° 295° (WNW) 09:13:28 435.675
PCSat 18 Jan 09:04:01 09:09:03 36° 44° (NE) 09:14:03 145.827
CANX-2 18 Jan 09:06:45 09:09:57 21° 297° (WNW) 09:13:08 2200.000
O/OREOS (USA 219) 18 Jan 09:13:17 09:14:57 12° 319° (NW) 09:16:38 437.305
HUMSAT D 18 Jan 09:17:24 09:20:12 17° 90° (E) 09:23:00 437.325/437.525
POPSAT HIP 1 18 Jan 09:20:29 09:21:11 10° 56° (ENE) 09:21:53 437.405
CUBEBUG 2 18 Jan 09:22:33 09:26:25 34° 292° (WNW) 09:30:22 437.445
SEEDS 18 Jan 09:22:53 09:26:13 22° 296° (WNW) 09:29:32 437.485
GONETS M04 18 Jan 09:24:12 09:30:16 21° 284° (WNW) 09:36:22
Oscar 11 18 Jan 09:24:51 09:29:15 89° 268° (W) 09:33:36 145.826/435.025
JAS-2 18 Jan 09:27:59 09:32:53 38° 64° (ENE) 09:38:16 435.910
COMPASS 1 18 Jan 09:32:53 09:36:20 25° 295° (WNW) 09:39:47 437.405
DUCHIFAT 1 18 Jan 09:33:17 09:34:59 12° 58° (ENE) 09:36:39 145.980
NANOSAT C BR1 18 Jan 09:36:53 09:39:08 14° 59° (ENE) 09:41:24 145.865
AAUSAT CUBESAT 2 18 Jan 09:46:46 09:50:06 23° 295° (WNW) 09:53:24 437.432
DELFI C3 18 Jan 09:49:18 09:53:18 60° 101° (E) 09:57:14 145.870
SO-50 18 Jan 09:54:19 09:58:46 41° 317° (NW) 10:03:10 436.795
UWE-3 18 Jan 09:56:23 09:59:54 25° 294° (WNW) 10:03:30 435.000/436.395/437.385
FUNcube-1 18 Jan 09:58:32 10:02:33 39° 291° (WNW) 10:06:39 145.935
UNISAT 6 18 Jan 10:05:06 10:09:00 35° 263° (W) 10:12:57 437.425
RS-15 18 Jan 10:07:33 10:19:00 48° 250° (WSW) 10:30:04 29.354- 29.394
BUGSAT 1 18 Jan 10:17:27 10:19:19 13° 59° (ENE) 10:21:09 437.445
TIGRISAT 18 Jan 10:19:35 10:23:13 27° 265° (W) 10:26:52 435.000
ZACube-1 18 Jan 10:20:40 10:24:06 23° 295° (WNW) 10:27:36 437.345
BY70-1 18 Jan 10:23:13 10:25:37 18° 92° (E) 10:27:57 436.1900
QB50P1 18 Jan 10:25:36 10:29:34 43° 70° (ENE) 10:33:34 145.935-145.965
POLYITAN 1 18 Jan 10:28:56 10:32:57 47° 71° (ENE) 10:36:59 437.675
QB50P2 18 Jan 10:30:01 10:34:06 51° 71° (ENE) 10:38:11 145.880/145.840
ANTELSAT 18 Jan 10:34:59 10:38:00 19° 268° (W) 10:41:02 437.575/2403.000
CUBEBUG 1 18 Jan 10:45:48 10:47:23 12° 88° (E) 10:48:57 437.445
PCSat 18 Jan 10:47:24 10:52:35 46° 245° (WSW) 10:57:44 145.827
HO-68 18 Jan 10:49:17 10:52:46 14° 317° (NW) 10:56:15 435.675
Oscar 19 18 Jan 10:51:08 10:53:21 13° 53° (NE) 10:55:35 437.125/150
HUMSAT D 18 Jan 10:51:57 10:56:07 54° 288° (WNW) 11:00:18 437.325/437.525
POPSAT HIP 1 18 Jan 10:52:02 10:56:13 80° 76° (ENE) 11:00:26 437.405
Oscar 11 18 Jan 11:02:57 11:04:42 12° 302° (WNW) 11:06:25 145.826/435.025
DUCHIFAT 1 18 Jan 11:05:51 11:10:02 84° 254° (WSW) 11:14:14 145.980
ESTCUBE 1 18 Jan 11:06:09 11:10:14 32° 96° (E) 11:14:16 437.505/2401.250
NANOSAT C BR1 18 Jan 11:10:10 11:14:20 70° 258° (WSW) 11:18:32 145.865
JAS-2 18 Jan 11:13:14 11:18:04 35° 266° (W) 11:23:21 435.910
DELFI C3 18 Jan 11:25:20 11:27:39 15° 299° (WNW) 11:29:56 145.870
VELOX 1 18 Jan 11:28:06 11:31:23 20° 92° (E) 11:34:39 145.980
SO-50 18 Jan 11:38:07 11:40:27 13° 339° (NNW) 11:42:46 436.795
Cosmos 2491 18 Jan 11:40:38 11:47:31 24° 59° (ENE) 11:54:20 435.465 / 435.565
BUGSAT 1 18 Jan 11:50:04 11:54:08 75° 257° (WSW) 11:58:12 437.445
BY70-1 18 Jan 11:53:00 11:56:06 32° 291° (WNW) 11:59:05 436.1900
QB50P1 18 Jan 12:02:27 12:05:33 20° 268° (W) 12:08:40 145.935-145.965
POLYITAN 1 18 Jan 12:06:04 12:09:00 18° 268° (W) 12:11:57 437.675
QB50P2 18 Jan 12:07:27 12:10:12 17° 269° (W) 12:12:58 145.880/145.840
DX 1 18 Jan 12:07:41 12:11:17 25° 94° (E) 12:14:51 434.975-435.025
UKube-1 18 Jan 12:11:40 12:14:54 20° 93° (E) 12:18:06 .
AO-7 18 Jan 12:13:31 12:18:50 19° 40° (NE) 12:24:11 29.400- 29.500
SPROUT 18 Jan 12:13:33 12:17:37 43° 98° (E) 12:21:40 437.525
CUBEBUG 1 18 Jan 12:19:52 12:24:14 79° 284° (WNW) 12:28:32 437.445
Gurwin Techsat 1B 18 Jan 12:22:52 12:27:44 39° 66° (ENE) 12:32:39 435.225
Oscar 19 18 Jan 12:26:36 12:31:46 71° 72° (ENE) 12:36:59 437.125/150
AISAT 18 Jan 12:30:09 12:34:35 86° 106° (ESE) 12:38:58 437.250
POPSAT HIP 1 18 Jan 12:31:24 12:32:34 11° 273° (W) 12:33:44 437.405
ESTCUBE 1 18 Jan 12:42:59 12:47:00 32° 294° (WNW) 12:51:00 437.505/2401.250
50 SAT 18 Jan 12:43:04 12:46:40 81° 285° (WNW) 12:50:12 437.505
VELOX 1 18 Jan 13:03:52 13:08:06 47° 290° (WNW) 13:12:18 145.980
ITAMSAT 1 18 Jan 13:06:03 13:09:59 23° 59° (ENE) 13:13:57 435.822/435.867
CUSAT 1 18 Jan 13:08:48 13:15:55 35° 65° (ENE) 13:22:57 437.405
SWISSCUBE 18 Jan 13:29:01 13:30:23 11° 86° (E) 13:31:44 437.505
DANDE 18 Jan 13:36:21 13:42:04 24° 61° (ENE) 13:48:21 436.750
Cosmos 2491 18 Jan 13:36:48 13:45:38 89° 258° (WSW) 13:54:27 435.465 / 435.565
DX 1 18 Jan 13:43:33 13:47:34 37° 292° (WNW) 13:51:34 434.975-435.025
UKube-1 18 Jan 13:47:02 13:51:09 45° 291° (WNW) 13:55:15 .
YUBILEINY 18 Jan 13:48:04 13:56:13 44° 87° (E) 14:04:25 435.215
TISAT 1 18 Jan 13:49:23 13:53:33 68° 103° (ESE) 13:57:42 437.305
SPROUT 18 Jan 13:50:01 13:53:17 22° 296° (WNW) 13:56:33 437.525
AO-85 18 Jan 13:57:39 14:01:33 27° 117° (ESE) 14:05:16 145.980
CUBEBUG 1 18 Jan 13:58:41 13:59:45 11° 304° (NW) 14:00:49 437.445
AO-7 18 Jan 14:01:51 14:10:02 62° 63° (ENE) 14:18:15 29.400- 29.500
Gurwin Techsat 1B 18 Jan 14:02:57 14:07:44 34° 264° (W) 14:12:33 435.225
Oscar 19 18 Jan 14:08:12 14:11:37 18° 271° (W) 14:15:04 437.125/150
AISAT 18 Jan 14:08:23 14:10:23 13° 303° (WNW) 14:12:23 437.250
AIST 1 18 Jan 14:20:23 14:24:47 83° 96° (E) 14:29:09
O/OREOS (USA 219) 18 Jan 14:20:55 14:21:27 10° 39° (NE) 14:22:00 437.305
ITUPSAT 1 18 Jan 14:26:46 14:31:10 34° 97° (E) 14:35:31 437.325
Cosmos 2504 18 Jan 14:29:37 14:37:38 44° 88° (E) 14:45:14 435.465 / 435.565
ITAMSAT 1 18 Jan 14:43:57 14:49:03 60° 259° (WSW) 14:54:12 435.822/435.867
CUSAT 1 18 Jan 14:50:31 14:58:20 64° 265° (W) 15:05:54 437.405
BRITE-PL 18 Jan 14:50:34 14:54:45 22° 60° (ENE) 14:58:54 437.365/2234.400
SO-50 18 Jan 15:02:01 15:05:17 19° 29° (NNE) 15:08:31 436.795
BEESAT 18 Jan 15:02:40 15:07:28 75° 103° (ESE) 15:12:16 436.000
SWISSCUBE 18 Jan 15:04:04 15:08:54 85° 104° (ESE) 15:13:42 437.505
GOMX 1 18 Jan 15:07:46 15:10:07 13° 56° (NE) 15:12:25 467.674
MOZHAYETS 4 18 Jan 15:17:23 15:21:41 36° 96° (E) 15:25:57
DANDE 18 Jan 15:18:10 15:25:36 87° 79° (ENE) 15:34:01 436.750
TISAT 1 18 Jan 15:26:22 15:28:42 15° 300° (WNW) 15:31:01 437.305
Cosmos 2491 18 Jan 15:35:10 15:41:13 21° 284° (WNW) 15:47:19 435.465 / 435.565
AO-85 18 Jan 15:37:23 15:41:50 46° 314° (NW) 15:45:58 145.980
CUTE-I 18 Jan 15:42:09 15:44:33 13° 53° (NE) 15:46:58 437.470
YUBILEINY 18 Jan 15:44:30 15:52:57 49° 289° (WNW) 16:01:30 435.215
AO-7 18 Jan 15:55:43 16:03:13 36° 264° (W) 16:10:48 29.400- 29.500
DOVE 4 18 Jan 15:57:27 15:59:54 14° 59° (ENE) 16:02:17 437.250
O/OREOS (USA 219) 18 Jan 15:57:31 16:01:56 54° 60° (ENE) 16:06:21 437.305
CUBESAT XI-V 18 Jan 15:58:15 16:01:16 17° 89° (E) 16:04:15 437.345
AIST 1 18 Jan 16:01:18 16:03:01 12° 297° (WNW) 16:04:42
HO-68 18 Jan 16:04:23 16:05:00 10° 37° (NE) 16:05:37 435.675
ITUPSAT 1 18 Jan 16:04:40 16:08:57 33° 295° (WNW) 16:13:13 437.325
NOAA 18 18 Jan 16:11:20 16:14:18 15° 52° (NE) 16:17:14 137.9125
KKS-1 18 Jan 16:12:34 16:16:46 40° 98° (E) 16:20:55 437.445
M-CUBED/EXP-1 PRIME 18 Jan 16:13:11 16:16:25 37° 104° (ESE) 16:19:31 437.505
Cubesat XI-IV 18 Jan 16:22:14 16:26:33 26° 61° (ENE) 16:30:54 437.490
Cosmos 2504 18 Jan 16:22:41 16:30:58 48° 288° (WNW) 16:38:50 435.465 / 435.565
HORYU 2 18 Jan 16:23:36 16:27:54 57° 71° (ENE) 16:32:16 437.375
BRITE-PL 18 Jan 16:26:58 16:32:40 74° 258° (WSW) 16:38:19 437.365/2234.400
BEESAT 3 18 Jan 16:28:47 16:32:02 26° 116° (ESE) 16:35:21 437.485
CUSAT 1 18 Jan 16:34:47 16:38:49 15° 284° (WNW) 16:42:50 437.405
NOAA 15 18 Jan 16:38:07 16:42:55 36° 65° (ENE) 16:47:44 137.62
LilacSat-2 18 Jan 16:39:52 16:43:04 27° 67° (ENE) 16:46:18 437.200
BEESAT 18 Jan 16:41:40 16:44:42 17° 302° (WNW) 16:47:44 436.000
SO-50 18 Jan 16:41:55 16:46:29 79° 51° (NE) 16:50:57 436.795
GOMX 1 18 Jan 16:41:59 16:47:23 72° 74° (ENE) 16:52:33 467.674
SWISSCUBE 18 Jan 16:43:20 16:46:02 15° 303° (WNW) 16:48:45 437.505
AUBIESAT-1 18 Jan 16:51:32 16:55:00 87° 291° (WNW) 16:58:18 437.475
MOZHAYETS 4 18 Jan 16:54:44 16:58:46 29° 294° (WNW) 17:02:46
DANDE 18 Jan 17:02:00 17:07:42 24° 276° (W) 17:13:51 436.750
BEESAT 2 18 Jan 17:08:47 17:12:13 30° 117° (ESE) 17:15:44 435.950
STARS 18 Jan 17:11:29 17:15:53 76° 104° (ESE) 17:20:14 437.465
CUTE-I 18 Jan 17:18:25 17:23:42 72° 72° (ENE) 17:29:01 437.470
AO-85 18 Jan 17:21:14 17:23:13 13° 335° (NNW) 17:25:09 145.980
DOVE 4 18 Jan 17:31:56 17:36:58 88° 75° (ENE) 17:41:44 437.250
CUBESAT XI-V 18 Jan 17:34:25 17:39:06 64° 287° (WNW) 17:43:42 437.345
O/OREOS (USA 219) 18 Jan 17:37:48 17:40:57 19° 259° (WSW) 17:44:06 437.305
CINEMA 3 18 Jan 17:39:32 17:43:14 27° 67° (ENE) 17:46:51 145.822/145.860
HO-68 18 Jan 17:44:16 17:50:46 39° 60° (ENE) 17:57:17 435.675
M-CUBED/EXP-1 PRIME 18 Jan 17:48:22 17:50:40 17° 303° (WNW) 17:52:53 437.505
NOAA 18 18 Jan 17:48:35 17:54:06 77° 71° (ENE) 17:59:36 137.9125
YUBILEINY 18 Jan 17:49:10 17:52:32 12° 315° (NW) 17:55:55 435.215
KKS-1 18 Jan 17:49:33 17:53:08 25° 297° (WNW) 17:56:43 437.445
CUTE 1.7 + AOD 2 18 Jan 17:57:58 18:01:23 24° 65° (ENE) 18:04:49 437.475
Cubesat XI-IV 18 Jan 18:01:09 18:06:20 53° 260° (W) 18:11:33 437.490
HORYU 2 18 Jan 18:01:59 18:04:50 17° 269° (W) 18:07:41 437.375
BEESAT 3 18 Jan 18:05:49 18:09:30 39° 315° (NW) 18:13:16 437.485
BRITE-PL 18 Jan 18:09:44 18:12:00 12° 276° (W) 18:14:15 437.365/2234.400
LilacSat-2 18 Jan 18:14:07 18:17:19 26° 265° (W) 18:20:33 437.200
NOAA 15 18 Jan 18:17:49 18:22:40 36° 263° (W) 18:27:35 137.62
GOMX 1 18 Jan 18:22:16 18:25:54 18° 271° (W) 18:29:27 467.674
SO-50 18 Jan 18:23:48 18:26:20 15° 250° (WSW) 18:28:51 436.795
Cosmos 2504 18 Jan 18:24:07 18:26:42 11° 312° (NW) 18:29:14 435.465 / 435.565
CANX-2 18 Jan 18:25:54 18:30:01 50° 72° (ENE) 18:34:11 2200.000
STRAND 1 18 Jan 18:31:30 18:35:12 20° 91° (E) 18:38:52 437.568
GONETS M04 18 Jan 18:37:16 18:43:33 23° 77° (ENE) 18:49:52
SEEDS 18 Jan 18:41:18 18:45:18 43° 70° (ENE) 18:49:21 437.485
BEESAT 2 18 Jan 18:46:16 18:49:56 35° 317° (NW) 18:53:41 435.950
CUBEBUG 2 18 Jan 18:47:32 18:51:15 32° 68° (ENE) 18:54:56 437.445
Oscar 11 18 Jan 18:49:05 18:51:16 14° 59° (ENE) 18:53:28 145.826/435.025
STARS 18 Jan 18:49:18 18:51:40 14° 302° (WNW) 18:54:01 437.465
Cosmos 2499 18 Jan 18:49:20 18:56:25 32° 84° (E) 19:03:06 435.465 / 435.565
COMPASS 1 18 Jan 18:50:41 18:54:33 37° 69° (ENE) 18:58:26 437.405
CUTE-I 18 Jan 19:00:47 19:04:18 18° 271° (W) 19:07:50 437.470
AAUSAT CUBESAT 2 18 Jan 19:03:58 19:07:51 39° 70° (ENE) 19:11:47 437.432
DOVE 4 18 Jan 19:13:03 19:15:13 13° 272° (W) 19:17:21 437.250
CINEMA 3 18 Jan 19:16:15 19:20:18 34° 263° (W) 19:24:14 145.822/145.860
UWE-3 18 Jan 19:19:48 19:23:44 44° 71° (ENE) 19:27:42 435.000/436.395/437.385
FUNcube-1 18 Jan 19:21:33 19:25:01 27° 66° (ENE) 19:28:33 145.935
HO-68 18 Jan 19:31:20 19:38:19 52° 260° (W) 19:45:22 435.675
NOAA 18 18 Jan 19:31:47 19:35:22 17° 270° (W) 19:38:56 137.9125
CUTE 1.7 + AOD 2 18 Jan 19:33:04 19:37:02 38° 263° (W) 19:41:03 437.475
ZACube-1 18 Jan 19:42:54 19:46:52 47° 71° (ENE) 19:50:52 437.345
BEESAT 3 18 Jan 19:47:10 19:48:12 11° 337° (NNW) 19:49:15 437.485
CANX-2 18 Jan 20:03:16 20:06:10 18° 270° (W) 20:09:06 2200.000
STRAND 1 18 Jan 20:09:43 20:14:48 63° 289° (WNW) 20:19:52 437.568
HUMSAT D 18 Jan 20:12:03 20:14:52 18° 62° (ENE) 20:17:44 437.325/437.525
SEEDS 18 Jan 20:18:03 20:21:12 20° 268° (W) 20:24:23 437.485
Oscar 11 18 Jan 20:22:30 20:26:49 78° 257° (WSW) 20:31:10 145.826/435.025
CUBEBUG 2 18 Jan 20:24:24 20:27:55 26° 266° (W) 20:31:25 437.445
AIST 2 18 Jan 20:26:19 20:30:25 70° 125° (SE) 20:34:36 435.215
COMPASS 1 18 Jan 20:26:49 20:30:12 23° 267° (W) 20:33:36 437.405
BEESAT 2 18 Jan 20:28:07 20:28:53 10° 339° (NNW) 20:29:39 435.950
PRISM 18 Jan 20:28:44 20:30:55 14° 90° (E) 20:33:04 437.425
GONETS M04 18 Jan 20:30:29 20:39:13 87° 279° (W) 20:48:03
DELFI C3 18 Jan 20:37:42 20:41:37 54° 72° (ENE) 20:45:34 145.870
AAUSAT CUBESAT 2 18 Jan 20:40:13 20:43:28 22° 267° (W) 20:46:45 437.432
Cosmos 2499 18 Jan 20:40:47 20:49:07 63° 284° (WNW) 20:56:53 435.465 / 435.565
AO-85 18 Jan 20:45:58 20:47:55 13° 26° (NNE) 20:49:51 145.980
UWE-3 18 Jan 20:57:29 21:00:27 19° 268° (W) 21:03:26 435.000/436.395/437.385
FUNcube-1 18 Jan 20:57:30 21:01:12 31° 264° (W) 21:04:55 145.935
ZACube-1 18 Jan 21:20:37 21:23:26 18° 269° (W) 21:26:17 437.345
CUBEBUG 1 18 Jan 21:44:24 21:47:14 17° 60° (ENE) 21:50:04 437.445
HUMSAT D 18 Jan 21:46:09 21:50:08 50° 260° (W) 21:54:11 437.325/437.525
STRAND 1 18 Jan 21:51:32 21:53:00 11° 308° (NW) 21:54:28 437.568
UNISAT 6 18 Jan 21:52:36 21:56:40 35° 97° (E) 22:00:47 437.425
AISAT 18 Jan 21:56:12 21:58:51 16° 59° (ENE) 22:01:30 437.250
PRISM 18 Jan 22:02:31 22:06:37 61° 288° (WNW) 22:10:39 437.425
AIST 2 18 Jan 22:06:05 22:09:20 21° 325° (NW) 22:12:37 435.215
TIGRISAT 18 Jan 22:06:25 22:10:39 45° 99° (E) 22:14:57 435.000
ESTCUBE 1 18 Jan 22:08:36 22:12:53 43° 69° (ENE) 22:17:13 437.505/2401.250
BY70-1 18 Jan 22:10:30 22:13:30 86° 84° (E) 22:16:47 436.1900
DELFI C3 18 Jan 22:14:25 22:16:46 15° 270° (W) 22:19:08 145.870
JAS-2 18 Jan 22:16:23 22:22:33 31° 93° (E) 22:29:09 435.910
ANTELSAT 18 Jan 22:21:06 22:25:30 67° 102° (ESE) 22:29:59 437.575/2403.000
RS-15 18 Jan 22:24:44 22:33:42 26° 100° (E) 22:42:53 29.354- 29.394
AO-85 18 Jan 22:25:17 22:29:12 57° 48° (NE) 22:33:02 145.980
VELOX 1 18 Jan 22:28:18 22:32:06 28° 65° (ENE) 22:35:53 145.980
GONETS M04 18 Jan 22:30:56 22:37:28 23° 303° (WNW) 22:44:06
POPSAT HIP 1 18 Jan 22:36:31 22:36:44 10° 87° (E) 22:36:58 437.405
Cosmos 2499 18 Jan 22:39:37 22:43:57 15° 306° (NW) 22:48:10 435.465 / 435.565
DUCHIFAT 1 18 Jan 22:48:16 22:49:56 12° 88° (E) 22:51:35 145.980
NANOSAT C BR1 18 Jan 22:52:15 22:54:39 15° 90° (E) 22:57:01 145.865
BEESAT 3 18 Jan 23:05:30 23:07:15 12° 26° (NNE) 23:08:59 437.485
DX 1 18 Jan 23:06:07 23:10:04 34° 67° (ENE) 23:14:01 434.975-435.025
UKube-1 18 Jan 23:09:07 23:12:46 27° 65° (ENE) 23:16:26 .
SPROUT 18 Jan 23:09:53 23:14:00 50° 71° (ENE) 23:18:08 437.525
TISAT 1 18 Jan 23:12:54 23:13:06 10° 56° (NE) 23:13:18 437.305
CUBEBUG 1 18 Jan 23:18:40 23:23:03 64° 258° (WSW) 23:27:27 437.445
50 SAT 18 Jan 23:20:31 23:24:04 67° 75° (ENE) 23:27:40 437.505
